Content
SEND FEEDBACK

Daily
Averages
Monthly
Summary
United States of America

GUERNEWOOD, CALIFORNIA


Home > North America > United States > California
Elevation: 60 feet     Latitude: 38 30N     Longitude: 123 00W

WEATHER
 
SELECT A DAY
Number of Records: 201,818;   Date Range: 1/1/95 - 9/16/14
 
SHARE

PRINT THIS DATA

[ ← Previous Day ]
WEATHER ALMANAC - JANUARY 3, 2013
[ Next Day → ]
[ °C ]   °F
Weather ElementAverageHighLow
Temperature34.3 °F55 °F (2:53 pm)26.6 °F (6:35 am)
Dewpoint29.8 °F37.9 °F (4:53 pm)24.1 °F (6:53 am)
Humidity85.9 %100 % (12:23 am)41 % (1:53 pm)
Barometer30.19 in30.26 in (10:53 pm)30.16 in (12:53 am)
Wind Speed0.8 mph4.6 mph (3:53 pm)
Weather ElementAverage
Visibility5.3 mi
Wind DirectionNE (45.1 °)

Weather ElementTotal
Precipitation---
Heating Degree Days24.2 (Base 65)
Averaged from 45 records on January 3, 2013
WEATHER CONDITIONS BREAKOUT
WIND DIRECTION BREAKOUT
WEATHER BY HOUR - JANUARY 3, 2013
[ °C ]   °F
Local TimeTemperatureDewpointHumidityBarometerVisibilityWind DirectionWind SpeedGust SpeedPrecipitationEventsConditions
12:23 AM30.2 °F30.2 °F100 %30.18 in2.5 miCalmClear
12:31 AM30.2 °F30.2 °F100 %30.18 in8.0 miCalmClear
12:45 AM30.2 °F28.4 °F93 %30.18 in1.8 miCalmClear
12:53 AM30.0 °F28.9 °F96 %30.16 in1.2 miCalmClear
1:08 AM30.2 °F28.4 °F93 %30.18 in2.0 miCalmPartly Cloudy
1:15 AM30.2 °F28.4 °F93 %30.18 in1.2 miCalmScattered Clouds
1:19 AM30.2 °F28.4 °F93 %30.18 in0.8 miCalmMist
1:53 AM28.9 °F27.0 °F92 %30.16 in0.5 miNorth (10°)3.5 mphFogLight Freezing Fog
2:04 AM28.4 °F26.6 °F93 %30.17 in1.2 miNE (40°)3.5 mphScattered Clouds
2:08 AM28.4 °F26.6 °F93 %30.17 in3.0 miCalmPartly Cloudy
2:53 AM28.9 °F27.0 °F92 %30.17 in6.0 miCalmClear
3:53 AM30.0 °F28.0 °F92 %30.17 in4.0 miNW (320°)3.5 mphClear
4:00 AM28.4 °F26.6 °F93 %30.18 in1.8 miCalmClear
4:31 AM28.4 °F26.6 °F93 %30.18 in2.0 miCalmPartly Cloudy
4:35 AM28.4 °F26.6 °F93 %30.18 in1.0 miCalmMist
4:43 AM28.4 °F26.6 °F93 %30.17 in2.0 miCalmClear
4:51 AM28.4 °F26.6 °F93 %30.17 in6.0 miCalmClear
4:53 AM28.9 °F27.0 °F92 %30.16 in7.0 miCalmClear
5:02 AM28.4 °F26.6 °F93 %30.17 in1.8 miCalmClear
5:14 AM28.4 °F26.6 °F93 %30.17 in2.0 miCalmClear
5:22 AM28.4 °F26.6 °F93 %30.18 in1.0 miCalmClear
5:32 AM28.4 °F26.6 °F93 %30.18 in3.0 miCalmClear
5:53 AM27.0 °F25.0 °F92 %30.17 in1.5 miCalmClear
6:14 AM28.4 °F28.4 °F100 %30.19 in3.0 miCalmClear
6:35 AM26.6 °F24.8 °F93 %30.19 in2.5 miCalmPartly Cloudy
6:38 AM26.6 °F24.8 °F93 %30.19 in1.0 miCalmMist
6:45 AM26.6 °F24.8 °F93 %30.19 in8.0 miCalmFogPatches of Fog
6:53 AM27.0 °F24.1 °F89 %30.18 in10.0 miCalmFogPatches of Fog
7:53 AM28.0 °F26.1 °F92 %30.20 in10.0 miCalmFogPatches of Fog
8:53 AM30.9 °F30.0 °F96 %30.22 in7.0 miCalmFogPatches of Fog
9:53 AM37.0 °F35.1 °F93 %30.24 in9.0 miNNW (340°)3.5 mphScattered Clouds
10:53 AM44.1 °F35.1 °F71 %30.24 in10.0 miCalmScattered Clouds
11:53 AM48.0 °F35.1 °F61 %30.21 in9.0 miCalmMostly Cloudy
12:53 PM53.1 °F36.0 °F52 %30.20 in10.0 miCalmMostly Cloudy
1:53 PM54.0 °F30.9 °F41 %30.19 in10.0 miSouth (170°)3.5 mphScattered Clouds
2:53 PM55.0 °F33.1 °F43 %30.19 in10.0 miSSW (210°)3.5 mphScattered Clouds
3:53 PM54.0 °F36.0 °F51 %30.21 in9.0 miSW (220°)4.6 mphMostly Cloudy
4:53 PM52.0 °F37.9 °F59 %30.21 in9.0 miESE (110°)3.5 mphMostly Cloudy
5:53 PM48.0 °F37.0 °F66 %30.22 in9.0 miCalmScattered Clouds
6:53 PM45.0 °F37.0 °F74 %30.22 in10.0 miCalmScattered Clouds
7:53 PM41.0 °F37.0 °F86 %30.23 in10.0 miNW (310°)3.5 mphClear
8:53 PM39.9 °F36.0 °F86 %30.24 in8.0 miCalmClear
9:53 PM36.0 °F34.0 °F93 %30.25 in9.0 miWNW (300°)3.5 mphClear
10:53 PM37.9 °F35.1 °F89 %30.26 in8.0 miCalmScattered Clouds
11:53 PM35.1 °F33.1 °F92 %30.25 in5.0 miCalmClear
Hourly data recorded from KSTS, located miles away from Guernewood, California







STORIES FROM OUR PARTNERS